FW9481 Weather Reports


time (UTC)temp
C
wind
direction
speed
KPH
gust
KPH
rain 1hr
cm
rain 24hr
cm
rain mn
cm
humidity
%
barometer
mb
20260507084055 3 166 0.0 0.0 0.00 0.00 0.00 99 1013.2
20260507083551 3 166 0.0 1.6 0.00 0.00 0.00 99 1013.3
20260507083048 3 157 0.0 0.0 0.00 0.00 0.00 99 1013.6
20260507082544 3 157 0.0 0.0 0.00 0.00 0.00 99 1013.4
20260507082041 3 157 0.0 1.6 0.00 0.00 0.00 99 1013.4
20260507081537 3 120 0.0 0.0 0.00 0.00 0.00 99 1013.4
20260507081034 3 120 0.0 0.0 0.00 0.00 0.00 99 1013.5
20260507080529 3 120 0.0 3.2 0.00 0.00 0.00 99 1013.3
20260507080026 3 165 0.0 0.0 0.00 0.00 0.00 99 1013.1
20260507075522 3 165 0.0 0.0 0.00 0.00 0.00 99 1013.4
20260507075018 3 165 0.0 0.0 0.00 0.00 0.00 99 1013.4
20260507074515 3 165 0.0 0.0 0.00 0.00 0.00 99 1013.3
20260507074014 3 165 0.0 0.0 0.00 0.00 0.00 99 1013.4
20260507073509 3 165 0.0 0.0 0.00 0.00 0.00 99 1013.4
20260507073006 3 165 0.0 0.0 0.00 0.00 0.00 99 1013.4
20260507072504 3 106 0.0 0.0 0.00 0.00 0.00 99 1013.4
20260507072001 3 106 0.0 0.0 0.00 0.00 0.00 99 1013.4
20260507071458 3 106 0.0 0.0 0.00 0.00 0.00 99 1013.2
20260507070954 4 166 0.0 0.0 0.00 0.00 0.00 99 1013.3
20260507070452 4 131 0.0 1.6 0.00 0.00 0.00 99 1013.3
20260507065948 4 106 0.0 1.6 0.00 0.00 0.00 99 1013.3
20260507065445 4 106 0.0 3.2 0.00 0.00 0.00 99 1013.3
20260507064942 4 151 0.0 1.6 0.00 0.00 0.00 99 1013.4
20260507064440 4 82 0.0 1.6 0.00 0.00 0.00 99 1013.5
20260507063938 5 120 0.0 1.6 0.00 0.00 0.00 99 1013.6
20260507063435 5 90 0.0 0.0 0.00 0.00 0.00 99 1013.4
20260507062932 4 74 0.0 0.0 0.00 0.00 0.00 99 1013.4
20260507062429 5 106 0.0 0.0 0.00 0.00 0.00 99 1013.6
20260507061926 5 106 0.0 0.0 0.00 0.00 0.00 99 1013.7
20260507061424 5 106 0.0 0.0 0.00 0.00 0.00 99 1013.5
20260507060922 5 131 0.0 1.6 0.00 0.00 0.00 99 1013.5
20260507060419 5 120 0.0 0.0 0.00 0.00 0.00 99 1013.6
20260507055916 5 120 1.6 1.6 0.00 0.00 0.00 99 1013.5
20260507055411 5 74 0.0 0.0 0.00 0.00 0.00 99 1013.6
20260507054908 5 114 0.0 0.0 0.00 0.00 0.00 99 1013.6
20260507054404 5 114 0.0 1.6 0.00 0.00 0.00 99 1013.6
20260507053901 5 165 0.0 1.6 0.00 0.00 0.00 99 1013.6
20260507053359 5 165 0.0 1.6 0.00 0.00 0.00 99 1013.5
20260507052858 5 140 0.0 3.2 0.00 0.00 0.00 99 1013.6
20260507052354 5 82 0.0 1.6 0.00 0.00 0.00 99 1013.8
20260507051851 5 74 0.0 0.0 0.00 0.00 0.00 99 1013.8
20260507051349 5 114 0.0 1.6 0.00 0.00 0.00 99 1013.7
20260507050845 5 106 0.0 0.0 0.00 0.00 0.00 99 1013.7
20260507050342 5 106 0.0 1.6 0.00 0.00 0.00 99 1013.9
20260507045839 5 60 1.6 1.6 0.00 0.00 0.00 99 1013.6
20260507045335 5 74 0.0 1.6 0.00 0.00 0.00 99 1013.9
20260507044833 5 114 0.0 1.6 0.00 0.00 0.00 99 1013.7
20260507044329 5 173 0.0 1.6 0.00 0.00 0.00 99 1013.8
20260507043825 5 160 0.0 1.6 0.00 0.00 0.00 99 1013.9
20260507043322 5 33 0.0 0.0 0.00 0.00 0.00 99 1013.6
20260507042818 5 120 0.0 1.6 0.00 0.00 0.00 99 1013.6
20260507042314 6 111 0.0 0.0 0.00 0.00 0.00 99 1013.7
20260507041811 6 195 0.0 1.6 0.00 0.00 0.00 99 1013.7
20260507041308 6 106 0.0 0.0 0.00 0.00 0.00 99 1013.6
20260507040805 6 106 0.0 0.0 0.00 0.00 0.00 99 1013.5
20260507040301 6 106 0.0 0.0 0.00 0.00 0.00 99 1013.5
20260507035757 6 106 0.0 0.0 0.00 1.65 1.65 99 1013.6
20260507035252 6 106 0.0 0.0 0.00 1.65 1.65 99 1013.5
20260507034750 6 106 0.0 0.0 0.00 1.65 1.65 99 1013.6
20260507034247 6 106 0.0 0.0 0.00 1.65 1.65 99 1013.4
20260507033745 6 106 0.0 0.0 0.00 1.65 1.65 99 1013.6
20260507033242 6 106 0.0 0.0 0.00 1.65 1.65 99 1013.6
20260507032739 6 106 0.0 0.0 0.00 1.65 1.65 98 1013.6
20260507032235 6 106 0.0 0.0 0.00 1.65 1.65 97 1013.8
20260507031732 6 106 0.0 0.0 0.00 1.65 1.65 97 1013.6
20260507031229 6 106 0.0 0.0 0.00 1.65 1.65 97 1013.9
20260507030726 7 106 0.0 0.0 0.00 1.65 1.65 97 1013.9
20260507030223 7 106 0.0 0.0 0.00 1.65 1.65 96 1013.7
20260507025720 7 106 0.0 0.0 0.00 1.65 1.65 96 1013.8
20260507025217 7 106 0.0 0.0 0.00 1.65 1.65 96 1013.7
20260507024716 7 145 0.0 1.6 0.00 1.65 1.65 96 1013.7
20260507024213 7 148 0.0 1.6 0.00 1.65 1.65 96 1013.6
20260507023708 7 106 0.0 1.6 0.00 1.65 1.65 96 1013.6
20260507023205 7 81 0.0 0.0 0.00 1.65 1.65 95 1013.5
20260507022702 8 81 0.0 0.0 0.00 1.65 1.65 95 1013.7
20260507022158 7 81 0.0 0.0 0.00 1.65 1.65 95 1013.7
20260507021654 8 81 0.0 1.6 0.00 1.65 1.65 94 1013.6
20260507021149 8 145 0.0 0.0 0.00 1.65 1.65 94 1013.7
20260507020649 8 145 0.0 0.0 0.00 1.65 1.65 94 1013.5
20260507020144 8 145 0.0 0.0 0.00 1.65 1.65 92 1013.2
20260507015643 8 145 0.0 0.0 0.00 1.65 1.65 91 1013.5
20260507015140 8 145 0.0 0.0 0.00 1.65 1.65 91 1013.2
20260507014636 8 203 0.0 1.6 0.00 1.65 1.65 90 1013.2
20260507014132 8 180 0.0 3.2 0.00 1.65 1.65 90 1013.3
20260507013629 8 151 0.0 1.6 0.00 1.65 1.65 90 1013.1
20260507013126 8 140 0.0 1.6 0.00 1.65 1.65 90 1013.1
20260507012624 9 172 0.0 1.6 0.00 1.65 1.65 90 1012.9
20260507012119 9 106 0.0 0.0 0.00 1.65 1.65 89 1012.8
20260507011618 10 165 0.0 0.0 0.00 1.65 1.65 89 1012.9
20260507011113 10 99 0.0 0.0 0.00 1.65 1.65 88 1013.0
20260507010608 10 99 0.0 0.0 0.00 1.65 1.65 86 1013.1
20260507010104 10 165 0.0 0.0 0.00 1.65 1.65 84 1012.9
20260507005602 10 165 0.0 0.0 0.00 1.65 1.65 84 1012.9
20260507005058 10 165 0.0 0.0 0.00 1.65 1.65 83 1012.8
20260507004555 11 165 0.0 1.6 0.00 1.65 1.65 82 1012.9
20260507004052 11 145 0.0 1.6 0.00 1.65 1.65 80 1012.8
20260507003548 11 106 0.0 1.6 0.00 1.65 1.65 79 1012.9
20260507003043 12 111 0.0 1.6 0.00 1.65 1.65 77 1012.8
20260507002540 12 74 0.0 1.6 0.00 1.65 1.65 70 1012.6
20260507002036 12 90 0.0 0.0 0.00 1.65 1.65 69 1012.6
20260507001533 12 90 0.0 1.6 0.00 1.65 1.65 69 1012.4
20260507001031 12 90 0.0 3.2 0.00 1.65 1.65 69 1012.6
20260507000526 13 90 0.0 1.6 0.00 1.65 1.65 68 1012.7
20260507000023 13 90 0.0 1.6 0.00 1.65 1.65 67 1012.1
20260506235520 13 97 0.0 3.2 0.00 1.65 1.65 67 1012.0
20260506235015 13 74 1.6 1.6 0.00 1.65 1.65 66 1012.4
20260506234513 13 106 0.0 3.2 0.00 1.65 1.65 68 1012.3
20260506234010 13 66 0.0 1.6 0.00 1.65 1.65 66 1012.1
20260506233506 13 112 0.0 3.2 0.00 1.65 1.65 66 1012.4
20260506233004 13 98 0.0 3.2 0.00 1.65 1.65 65 1012.3
20260506232459 13 90 0.0 3.2 0.00 1.65 1.65 66 1012.1
20260506231955 13 157 0.0 3.2 0.00 1.65 1.65 65 1011.9
20260506231453 14 57 0.0 3.2 0.00 1.65 1.65 63 1011.7
20260506230950 14 90 1.6 4.8 0.00 1.65 1.65 64 1012.1
20260506230446 14 114 0.0 4.8 0.00 1.65 1.65 63 1012.1
20260506225943 14 139 0.0 3.2 0.00 1.65 1.65 64 1012.1
20260506225441 14 66 1.6 3.2 0.00 1.65 1.65 64 1012.5
20260506224937 14 109 1.6 6.4 0.00 1.65 1.65 61 1012.3
20260506224434 15 144 0.0 3.2 0.00 1.65 1.65 61 1012.0
20260506223931 15 99 3.2 4.8 0.00 1.65 1.65 62 1012.3
20260506223426 15 172 0.0 4.8 0.00 1.65 1.65 59 1012.3
20260506222924 15 172 0.0 3.2 0.00 1.65 1.65 62 1012.4
20260506222420 15 151 0.0 1.6 0.00 1.65 1.65 62 1012.4
20260506221917 15 165 0.0 4.8 0.00 1.65 1.65 60 1012.4
20260506221414 15 203 0.0 3.2 0.00 1.65 1.65 61 1012.5
20260506220912 15 151 0.0 3.2 0.00 1.65 1.65 65 1012.6
20260506220407 15 71 1.6 3.2 0.00 1.65 1.65 64 1012.4
20260506215904 15 0 0.0 3.2 0.00 1.65 1.65 66 1012.6
20260506215400 15 171 3.2 3.2 0.00 1.65 1.65 61 1012.5
20260506214856 15 120 0.0 3.2 0.00 1.65 1.65 62 1012.5
20260506214353 15 172 0.0 3.2 0.00 1.65 1.65 65 1012.3
20260506213851 15 120 0.0 3.2 0.00 1.65 1.65 62 1012.4
20260506213348 15 105 0.0 1.6 0.00 1.65 1.65 61 1012.4
20260506212845 15 128 0.0 4.8 0.00 1.65 1.65 59 1012.3
20260506212341 15 129 0.0 3.2 0.00 1.65 1.65 63 1012.4
20260506211836 15 57 0.0 3.2 0.00 1.65 1.65 64 1011.9
20260506211332 15 66 0.0 4.8 0.00 1.65 1.65 63 1011.9
20260506210830 15 173 1.6 1.6 0.00 1.65 1.65 62 1011.9
20260506210327 15 180 0.0 3.2 0.00 1.65 1.65 62 1011.9
20260506205824 15 20 1.6 4.8 0.00 1.65 1.65 62 1011.9
20260506205320 15 109 0.0 1.6 0.00 1.65 1.65 62 1011.7
20260506204817 15 157 0.0 1.6 0.00 1.65 1.65 61 1012.0
20260506204314 15 65 0.0 3.2 0.00 1.65 1.65 63 1012.0
20260506203812 16 90 0.0 3.2 0.00 1.65 1.65 62 1012.0
20260506203309 16 54 1.6 3.2 0.00 1.65 1.65 64 1011.8
20260506202806 16 0 0.0 4.8 0.00 1.65 1.65 61 1011.9
20260506202306 16 148 3.2 3.2 0.00 1.65 1.65 61 1011.8
20260506201759 16 95 0.0 3.2 0.00 1.65 1.65 59 1011.9
20260506201256 16 20 0.0 3.2 0.00 1.65 1.65 62 1011.9
20260506200753 16 39 0.0 3.2 0.00 1.65 1.65 61 1011.7
20260506200249 16 114 1.6 4.8 0.00 1.65 1.65 62 1011.8
20260506195746 16 26 0.0 3.2 0.00 1.65 1.65 61 1012.0
20260506195242 16 96 0.0 3.2 0.00 1.65 1.65 60 1011.5
20260506194740 16 233 0.0 3.2 0.00 1.65 1.65 63 1011.9
20260506194236 16 68 0.0 4.8 0.00 1.65 1.65 62 1011.6
20260506193734 16 127 0.0 3.2 0.00 1.65 1.65 62 1011.6
20260506193230 16 68 3.2 6.4 0.00 1.65 1.65 63 1011.7
20260506192727 16 185 3.2 4.8 0.00 1.65 1.65 62 1011.4
20260506192224 17 49 3.2 4.8 0.00 1.65 1.65 62 1011.5
20260506191720 17 37 0.0 4.8 0.00 1.65 1.65 61 1011.3
20260506191216 17 90 0.0 4.8 0.00 1.65 1.65 60 1011.5
20260506190714 17 90 0.0 4.8 0.00 1.65 1.65 61 1011.4
20260506190210 17 249 0.0 3.2 0.00 1.65 1.65 61 1011.5
20260506185708 18 20 0.0 4.8 0.00 1.65 1.65 60 1011.4
20260506185204 18 82 0.0 6.4 0.00 1.65 1.65 63 1011.4
20260506184702 18 5 0.0 4.8 0.00 1.65 1.65 64 1011.1
20260506184159 17 90 0.0 4.8 0.00 1.65 1.65 65 1011.2
20260506183655 18 30 3.2 4.8 0.00 1.65 1.65 63 1011.4
20260506183151 17 90 0.0 3.2 0.00 1.65 1.65 61 1011.2
20260506182649 17 117 0.0 8.0 0.00 1.65 1.65 61 1011.4
20260506182146 18 90 0.0 3.2 0.00 1.65 1.65 58 1011.4
20260506181644 18 122 0.0 4.8 0.00 1.65 1.65 61 1011.7
20260506181140 18 7 1.6 6.4 0.00 1.65 1.65 60 1011.7
20260506180637 18 120 0.0 3.2 0.00 1.65 1.65 61 1011.5
20260506180134 18 151 0.0 3.2 0.00 1.65 1.65 58 1011.7
20260506175631 18 120 1.6 4.8 0.00 1.65 1.65 62 1011.5
20260506175126 19 170 3.2 3.2 0.00 1.65 1.65 60 1011.7
20260506174625 19 135 3.2 3.2 0.00 1.65 1.65 59 1012.1
20260506174121 18 176 3.2 4.8 0.00 1.65 1.65 61 1011.7
20260506173619 18 73 0.0 4.8 0.00 1.65 1.65 58 1011.5
20260506173116 18 28 3.2 3.2 0.00 1.65 1.65 63 1011.8
20260506172613 18 150 3.2 6.4 0.00 1.65 1.65 58 1011.9
20260506172109 18 90 0.0 4.8 0.00 1.65 1.65 63 1011.8
20260506171607 18 26 0.0 3.2 0.00 1.65 1.65 61 1011.8
20260506171104 17 120 0.0 4.8 0.00 1.65 1.65 60 1012.3
20260506170601 17 165 1.6 4.8 0.00 1.65 1.65 66 1012.0
20260506170053 18 90 3.2 4.8 0.00 1.65 1.65 64 1011.9
20260506165552 17 105 0.0 4.8 0.00 1.65 1.65 63 1011.9
20260506165047 17 160 4.8 4.8 0.00 1.65 1.65 63 1011.7
20260506164545 18 78 3.2 4.8 0.00 1.65 1.65 63 1011.9
20260506164042 18 103 4.8 4.8 0.00 1.65 1.65 64 1012.3
20260506163537 17 126 0.0 3.2 0.00 1.65 1.65 66 1012.3
20260506163033 18 75 1.6 4.8 0.00 1.65 1.65 60 1012.3
20260506162530 18 75 1.6 4.8 0.00 1.65 1.65 60 1012.0
20260506162027 18 148 3.2 4.8 0.00 1.65 1.65 61 1012.0
20260506161525 18 180 1.6 3.2 0.00 1.65 1.65 65 1011.8
20260506161022 17 96 0.0 6.4 0.00 1.65 1.65 65 1012.0
20260506160519 16 21 8.0 11.3 0.00 1.65 1.65 58 1012.0
20260506160016 17 165 0.0 4.8 0.00 1.65 1.65 65 1011.7
20260506155514 17 111 0.0 4.8 0.00 1.65 1.65 61 1011.9
20260506153646 17 101 3.2 4.8 0.00 1.65 1.65 63 1012.5
20260506153143 17 159 0.0 3.2 0.00 1.65 1.65 66 1012.3
20260506152640 16 213 0.0 4.8 0.00 1.65 1.65 66 1012.1
20260506152138 16 121 3.2 4.8 0.00 1.65 1.65 65 1012.1
20260506151636 16 78 0.0 4.8 0.00 1.65 1.65 64 1011.5
20260506151132 17 66 0.0 3.2 0.00 1.65 1.65 65 1011.7
20260506150629 17 186 0.0 4.8 0.00 1.65 1.65 67 1011.6
20260506150126 16 186 0.0 3.2 0.00 1.65 1.65 70 1011.4
20260506145623 16 276 0.0 3.2 0.00 1.65 1.65 73 1011.2
20260506145120 15 188 0.0 3.2 0.00 1.65 1.65 68 1011.3
20260506144617 14 328 3.2 3.2 0.00 1.65 1.65 71 1011.2
20260506144114 14 234 0.0 4.8 0.00 1.65 1.65 73 1010.9
20260506143612 14 346 0.0 1.6 0.00 1.65 1.65 74 1010.9
20260506143110 15 144 0.0 3.2 0.00 1.65 1.65 80 1010.9
20260506142608 13 90 0.0 0.0 0.00 1.65 1.65 82 1010.9
20260506142106 13 90 1.6 3.2 0.00 1.65 1.65 81 1010.9
20260506141603 12 139 3.2 4.8 0.00 1.65 1.65 82 1010.9
20260506141101 12 99 0.0 3.2 0.00 1.65 1.65 83 1011.1
20260506140558 12 99 0.0 4.8 0.00 1.65 1.65 84 1011.0
20260506140055 12 110 3.2 3.2 0.00 1.65 1.65 86 1010.9
20260506135552 12 82 0.0 3.2 0.00 1.65 1.65 86 1010.7
20260506135048 12 106 0.0 3.2 0.00 1.65 1.65 85 1010.8
20260506134545 12 114 0.0 3.2 0.00 1.65 1.65 87 1011.0
20260506134041 11 81 0.0 3.2 0.00 1.65 1.65 87 1010.8
20260506133538 11 90 3.2 3.2 0.00 1.65 1.65 87 1010.7
20260506133035 11 109 1.6 3.2 0.00 1.65 1.65 85 1010.8
20260506132532 10 82 0.0 3.2 0.00 1.65 1.65 87 1010.6
20260506132030 10 82 0.0 3.2 0.00 1.65 1.65 89 1010.4
20260506131527 10 120 0.0 3.2 0.00 1.65 1.65 89 1010.6
20260506131023 10 73 3.2 4.8 0.00 1.65 1.65 88 1010.6
20260506130520 10 151 0.0 3.2 0.00 1.65 1.65 88 1010.5
20260506130017 10 98 0.0 3.2 0.00 1.65 1.65 88 1010.5
20260506125516 10 83 1.6 3.2 0.00 1.65 1.65 88 1010.4
20260506125013 10 117 0.0 3.2 0.00 1.65 1.65 89 1010.3
20260506124511 10 98 0.0 3.2 0.00 1.65 1.65 92 1010.2
20260506124009 10 77 1.6 4.8 0.00 1.65 1.65 93 1010.3
20260506123506 9 57 1.6 3.2 0.00 1.65 1.65 95 1010.2
20260506123004 9 82 0.0 3.2 0.00 1.65 1.65 97 1010.0
20260506122500 9 90 0.0 3.2 0.00 1.65 1.65 97 1010.2
20260506121959 8 69 0.0 1.6 0.00 1.65 1.65 98 1010.1
20260506121455 8 120 0.0 3.2 0.00 1.65 1.65 99 1009.7
20260506120952 8 69 0.0 1.6 0.00 1.65 1.65 99 1009.7
20260506120450 8 106 0.0 1.6 0.00 1.65 1.65 99 1009.7
20260506115947 8 103 0.0 1.6 0.00 1.65 1.65 99 1009.7
20260506115445 8 114 0.0 1.6 0.00 1.65 1.65 99 1009.3
20260506114943 8 79 0.0 3.2 0.00 1.65 1.65 99 1009.3
20260506114440 8 74 0.0 0.0 0.00 1.65 1.65 99 1008.9
20260506113939 7 106 0.0 3.2 0.00 1.65 1.65 99 1009.0
20260506113436 7 60 0.0 1.6 0.00 1.65 1.65 99 1009.0
20260506112932 7 117 0.0 1.6 0.00 1.65 1.65 99 1008.7
20260506112430 7 114 0.0 0.0 0.00 1.65 1.65 99 1008.9
20260506111927 7 14 0.0 3.2 0.00 1.65 1.65 99 1008.9
20260506111425 7 77 0.0 3.2 0.00 1.65 1.65 99 1009.1
20260506110922 7 96 0.0 4.8 0.00 1.65 1.65 99 1008.8
20260506110420 7 63 0.0 3.2 0.00 1.65 1.65 99 1008.6
20260506105916 7 90 0.0 0.0 0.00 1.65 1.65 99 1008.5
20260506105413 7 15 0.0 0.0 0.00 1.65 1.65 99 1008.2
20260506104910 7 78 0.0 1.6 0.00 1.65 1.65 99 1008.3
20260506104408 7 69 0.0 1.6 0.00 1.65 1.65 99 1008.4
20260506103905 7 66 0.0 3.2 0.00 1.65 1.65 99 1008.5
20260506103403 7 23 0.0 3.2 0.00 1.65 1.65 99 1008.6
20260506102859 7 96 0.0 1.6 0.00 1.65 1.65 99 1008.5
20260506102358 7 98 0.0 1.6 0.00 1.65 1.65 99 1008.1
20260506101854 7 107 0.0 0.0 0.00 1.65 1.65 99 1007.8
20260506101350 7 147 0.0 3.2 0.00 1.65 1.65 99 1007.5
20260506100848 7 74 0.0 1.6 0.05 1.65 1.65 99 1007.5
20260506100347 7 117 0.0 1.6 0.05 1.65 1.65 99 1007.5
20260506095844 7 96 0.0 3.2 0.00 1.63 1.63 99 1007.5
20260506095342 7 66 0.0 3.2 0.00 1.63 1.63 99 1007.3
20260506094838 7 23 0.0 0.0 0.00 1.63 1.63 99 1007.6
20260506094337 7 35 0.0 1.6 0.00 1.63 1.63 99 1007.9
20260506093835 7 29 0.0 3.2 0.00 1.63 1.63 99 1008.0
20260506093332 7 180 0.0 1.6 0.00 1.63 1.63 99 1007.5
20260506092830 7 180 0.0 3.2 0.00 1.63 1.63 99 1007.1
20260506092327 7 26 1.6 4.8 0.00 1.63 1.63 99 1007.1
20260506091824 7 140 0.0 1.6 0.00 1.63 1.63 99 1007.0
20260506091322 7 84 0.0 0.0 0.00 1.63 1.63 99 1007.0
20260506090819 7 162 0.0 3.2 0.00 1.63 1.63 99 1007.0
20260506090316 7 159 0.0 3.2 0.00 1.63 1.63 99 1007.2
20260506085813 7 111 0.0 1.6 0.05 1.63 1.63 99 1007.1
20260506085309 7 162 0.0 3.2 0.00 1.63 1.63 99 1007.6
20260506084806 7 68 0.0 4.8 0.00 1.63 1.63 99 1007.4